Time,TemperatureF,DewpointF,PressureIn,WindDirection,WindDirectionDegrees,WindSpeedMPH,WindSpeedGustMPH,Humidity,HourlyPrecipIn,Conditions,Clouds,dailyrainin,SoftwareType,DateUTC
2013-01-01 00:18:00,31.3,26.0,29.76,West,278,0.0,0.0,81,0.00,,,0.00,weatherlink.com 1.10,2013-01-01 05:18:00,
2013-01-01 00:30:00,33.2,27.0,29.76,West,275,3.0,8.0,78,0.00,,,0.00,weatherlink.com 1.10,2013-01-01 05:30:00,
2013-01-01 00:45:00,34.9,27.0,29.76,WNW,294,2.0,5.0,74,0.00,,,0.00,weatherlink.com 1.10,2013-01-01 05:45:00,
2013-01-01 01:00:00,35.6,28.0,29.76,West,265,2.0,9.0,73,0.00,,,0.00,weatherlink.com 1.10,2013-01-01 06:00:00,
2013-01-01 01:15:00,35.4,28.0,29.76,WNW,286,2.0,11.0,74,0.00,,,0.00,weatherlink.com 1.10,2013-01-01 06:15:00,
2013-01-01 01:30:00,35.4,28.0,29.76,SW,224,7.0,16.0,74,0.00,,,0.00,weatherlink.com 1.10,2013-01-01 06:30:00,
2013-01-01 01:45:00,35.5,28.0,29.76,SW,231,1.0,9.0,73,0.00,,,0.00,weatherlink.com 1.10,2013-01-01 06:45:00,
2013-01-01 02:00:00,35.4,28.0,29.75,NW,304,0.0,11.0,73,0.00,,,0.00,weatherlink.com 1.10,2013-01-01 07:00:00,
2013-01-01 02:18:00,35.2,27.0,29.75,WSW,255,0.0,6.0,73,0.00,,,0.00,weatherlink.com 1.10,2013-01-01 07:18:00,
2013-01-01 02:30:00,35.1,27.0,29.75,West,278,0.0,10.0,73,0.00,,,0.00,weatherlink.com 1.10,2013-01-01 07:30:00,
2013-01-01 02:45:00,35.1,27.0,29.75,SW,223,0.0,0.0,73,0.00,,,0.00,weatherlink.com 1.10,2013-01-01 07:45:00,
2013-01-01 03:00:00,35.1,27.0,29.75,West,277,3.0,8.0,73,0.00,,,0.00,weatherlink.com 1.10,2013-01-01 08:00:00,
2013-01-01 03:18:00,35.4,28.0,29.75,West,266,5.0,16.0,73,0.00,,,0.00,weatherlink.com 1.10,2013-01-01 08:18:00,
2013-01-01 03:30:00,35.4,28.0,29.74,West,266,1.0,9.0,73,0.00,,,0.00,weatherlink.com 1.10,2013-01-01 08:30:00,
2013-01-01 03:45:00,35.2,28.0,29.75,WNW,298,2.0,16.0,74,0.00,,,0.00,weatherlink.com 1.10,2013-01-01 08:45:00,
2013-01-01 04:00:00,35.1,28.0,29.75,NW,306,2.0,12.0,75,0.00,,,0.00,weatherlink.com 1.10,2013-01-01 09:00:00,
2013-01-01 04:15:00,35.0,28.0,29.76,WNW,284,3.0,9.0,76,0.00,,,0.00,weatherlink.com 1.10,2013-01-01 09:15:00,
2013-01-01 04:30:00,34.6,28.0,29.76,WNW,287,8.0,9.0,78,0.00,,,0.00,weatherlink.com 1.10,2013-01-01 09:30:00,
2013-01-01 04:45:00,34.5,28.0,29.76,NNW,327,5.0,20.0,78,0.00,,,0.00,weatherlink.com 1.10,2013-01-01 09:45:00,
2013-01-01 05:00:00,34.1,28.0,29.75,West,278,5.0,16.0,79,0.00,,,0.00,weatherlink.com 1.10,2013-01-01 10:00:00,
2013-01-01 05:15:00,33.8,28.0,29.77,NNW,332,3.0,17.0,78,0.00,,,0.00,weatherlink.com 1.10,2013-01-01 10:15:00,
2013-01-01 05:30:00,33.4,27.0,29.77,West,270,9.0,22.0,76,0.00,,,0.00,weatherlink.com 1.10,2013-01-01 10:30:00,
2013-01-01 05:45:00,32.7,25.0,29.78,West,281,9.0,19.0,73,0.00,,,0.00,weatherlink.com 1.10,2013-01-01 10:45:00,
2013-01-01 06:00:00,32.2,24.0,29.79,NW,309,2.0,13.0,73,0.00,,,0.00,weatherlink.com 1.10,2013-01-01 11:00:00,
2013-01-01 06:18:00,31.8,24.0,29.79,NNW,347,6.0,12.0,72,0.00,,,0.00,weatherlink.com 1.10,2013-01-01 11:18:00,
2013-01-01 06:30:00,31.4,23.0,29.80,NW,307,6.0,13.0,71,0.00,,,0.00,weatherlink.com 1.10,2013-01-01 11:30:00,
2013-01-01 06:45:00,30.9,23.0,29.81,NNW,342,3.0,11.0,72,0.00,,,0.00,weatherlink.com 1.10,2013-01-01 11:45:00,
2013-01-01 07:00:00,30.5,22.0,29.82,North,355,4.0,10.0,72,0.00,,,0.00,weatherlink.com 1.10,2013-01-01 12:00:00,
2013-01-01 07:15:00,30.1,22.0,29.82,NW,317,0.0,8.0,72,0.00,,,0.00,weatherlink.com 1.10,2013-01-01 12:15:00,
2013-01-01 07:31:00,29.6,22.0,29.82,NNW,329,3.0,11.0,73,0.00,,,0.00,weatherlink.com 1.10,2013-01-01 12:31:00,
2013-01-01 07:45:00,29.4,22.0,29.84,NNW,336,0.0,5.0,74,0.00,,,0.00,weatherlink.com 1.10,2013-01-01 12:45:00,
2013-01-01 08:01:00,29.2,22.0,29.84,NNW,333,4.0,8.0,73,0.00,,,0.00,weatherlink.com 1.10,2013-01-01 13:01:00,
2013-01-01 08:16:00,29.1,22.0,29.84,NNW,337,0.0,5.0,74,0.00,,,0.00,weatherlink.com 1.10,2013-01-01 13:16:00,
2013-01-01 08:31:00,28.9,21.0,29.84,NW,323,0.0,9.0,73,0.00,,,0.00,weatherlink.com 1.10,2013-01-01 13:31:00,
2013-01-01 08:46:00,28.7,21.0,29.85,North,351,7.0,8.0,72,0.00,,,0.00,weatherlink.com 1.10,2013-01-01 13:46:00,
2013-01-01 09:01:00,28.5,20.0,29.85,NW,317,6.0,7.0,71,0.00,,,0.00,weatherlink.com 1.10,2013-01-01 14:01:00,
2013-01-01 09:16:00,28.5,20.0,29.86,NW,315,8.0,16.0,70,0.00,,,0.00,weatherlink.com 1.10,2013-01-01 14:16:00,
2013-01-01 09:31:00,28.2,20.0,29.86,NNW,332,4.0,13.0,70,0.00,,,0.00,weatherlink.com 1.10,2013-01-01 14:31:00,
2013-01-01 09:46:00,28.2,20.0,29.87,NNW,344,0.0,5.0,71,0.00,,,0.00,weatherlink.com 1.10,2013-01-01 14:46:00,
2013-01-01 10:01:00,28.2,20.0,29.88,NNE,29,1.0,5.0,71,0.00,,,0.00,weatherlink.com 1.10,2013-01-01 15:01:00,
2013-01-01 10:16:00,28.2,20.0,29.88,NW,323,0.0,7.0,70,0.00,,,0.00,weatherlink.com 1.10,2013-01-01 15:16:00,
2013-01-01 10:31:00,28.2,20.0,29.88,NW,325,0.0,5.0,71,0.00,,,0.00,weatherlink.com 1.10,2013-01-01 15:31:00,
2013-01-01 10:46:00,27.9,19.0,29.87,WNW,284,0.0,8.0,70,0.00,,,0.00,weatherlink.com 1.10,2013-01-01 15:46:00,
2013-01-01 11:01:00,28.0,20.0,29.87,West,277,1.0,5.0,71,0.00,,,0.00,weatherlink.com 1.10,2013-01-01 16:01:00,
2013-01-01 11:16:00,28.4,20.0,29.88,West,270,1.0,15.0,70,0.00,,,0.00,weatherlink.com 1.10,2013-01-01 16:16:00,
2013-01-01 11:31:00,28.6,20.0,29.87,West,269,2.0,11.0,69,0.00,,,0.00,weatherlink.com 1.10,2013-01-01 16:31:00,
2013-01-01 11:46:00,28.7,20.0,29.86,West,264,5.0,8.0,69,0.00,,,0.00,weatherlink.com 1.10,2013-01-01 16:46:00,
2013-01-01 12:01:00,28.5,19.0,29.86,NNW,342,3.0,10.0,68,0.00,,,0.00,weatherlink.com 1.10,2013-01-01 17:01:00,
2013-01-01 12:16:00,28.2,18.0,29.85,North,350,5.0,18.0,65,0.00,,,0.00,weatherlink.com 1.10,2013-01-01 17:16:00,
2013-01-01 12:31:00,28.1,17.0,29.85,WSW,251,3.0,22.0,64,0.00,,,0.00,weatherlink.com 1.10,2013-01-01 17:31:00,
2013-01-01 12:46:00,27.5,16.0,29.85,WNW,297,6.0,20.0,63,0.00,,,0.00,weatherlink.com 1.10,2013-01-01 17:46:00,
2013-01-01 13:01:00,27.8,17.0,29.86,WSW,241,12.0,19.0,64,0.00,,,0.00,weatherlink.com 1.10,2013-01-01 18:01:00,
2013-01-01 13:16:00,27.7,16.0,29.84,NNW,332,7.0,15.0,63,0.00,,,0.00,weatherlink.com 1.10,2013-01-01 18:16:00,
2013-01-01 13:31:00,27.6,16.0,29.84,WNW,290,12.0,16.0,63,0.00,,,0.00,weatherlink.com 1.10,2013-01-01 18:31:00,
2013-01-01 13:46:00,27.6,17.0,29.85,West,279,8.0,14.0,64,0.00,,,0.00,weatherlink.com 1.10,2013-01-01 18:46:00,
2013-01-01 14:01:00,27.4,17.0,29.85,NW,306,3.0,16.0,65,0.00,,,0.00,weatherlink.com 1.10,2013-01-01 19:01:00,
2013-01-01 14:16:00,27.1,17.0,29.85,NNW,340,1.0,16.0,66,0.00,,,0.00,weatherlink.com 1.10,2013-01-01 19:16:00,
2013-01-01 14:31:00,27.1,18.0,29.84,West,273,2.0,12.0,68,0.00,,,0.00,weatherlink.com 1.10,2013-01-01 19:31:00,
2013-01-01 14:46:00,26.8,17.0,29.85,WSW,252,5.0,13.0,67,0.00,,,0.00,weatherlink.com 1.10,2013-01-01 19:46:00,
2013-01-01 15:01:00,26.5,16.0,29.85,NW,316,2.0,11.0,66,0.00,,,0.00,weatherlink.com 1.10,2013-01-01 20:01:00,
2013-01-01 15:16:00,26.4,16.0,29.84,West,267,2.0,17.0,66,0.00,,,0.00,weatherlink.com 1.10,2013-01-01 20:16:00,
2013-01-01 15:31:00,26.2,15.0,29.85,West,276,6.0,14.0,64,0.00,,,0.00,weatherlink.com 1.10,2013-01-01 20:31:00,
2013-01-01 15:46:00,25.7,15.0,29.86,West,259,8.0,17.0,64,0.00,,,0.00,weatherlink.com 1.10,2013-01-01 20:46:00,
2013-01-01 16:01:00,25.2,14.0,29.88,WSW,249,8.0,14.0,63,0.00,,,0.00,weatherlink.com 1.10,2013-01-01 21:01:00,
2013-01-01 16:16:00,24.6,14.0,29.87,West,280,5.0,10.0,63,0.00,,,0.00,weatherlink.com 1.10,2013-01-01 21:16:00,
2013-01-01 16:31:00,24.4,13.0,29.87,West,275,1.0,18.0,63,0.00,,,0.00,weatherlink.com 1.10,2013-01-01 21:31:00,
2013-01-01 16:46:00,24.1,13.0,29.89,WNW,286,2.0,9.0,63,0.00,,,0.00,weatherlink.com 1.10,2013-01-01 21:46:00,
2013-01-01 17:03:00,23.7,13.0,29.89,WNW,286,5.0,9.0,64,0.00,,,0.00,weatherlink.com 1.10,2013-01-01 22:03:00,
2013-01-01 17:32:00,22.8,12.0,29.89,WNW,303,0.0,13.0,63,0.00,,,0.00,weatherlink.com 1.10,2013-01-01 22:32:00,
2013-01-01 17:47:00,22.5,12.0,29.91,West,280,1.0,15.0,64,0.00,,,0.00,weatherlink.com 1.10,2013-01-01 22:47:00,
2013-01-01 18:02:00,22.2,12.0,29.92,NW,309,0.0,8.0,65,0.00,,,0.00,weatherlink.com 1.10,2013-01-01 23:02:00,
2013-01-01 18:17:00,21.8,12.0,29.93,NNW,342,1.0,10.0,66,0.00,,,0.00,weatherlink.com 1.10,2013-01-01 23:17:00,
2013-01-01 18:32:00,21.4,12.0,29.94,NW,308,0.0,10.0,67,0.00,,,0.00,weatherlink.com 1.10,2013-01-01 23:32:00,
2013-01-01 18:47:00,21.0,12.0,29.94,NW,319,0.0,11.0,68,0.00,,,0.00,weatherlink.com 1.10,2013-01-01 23:47:00,
2013-01-01 19:17:00,20.2,12.0,29.95,North,355,4.0,9.0,70,0.00,,,0.00,weatherlink.com 1.10,2013-01-02 00:17:00,
2013-01-01 19:32:00,19.9,12.0,29.96,West,275,2.0,8.0,70,0.00,,,0.00,weatherlink.com 1.10,2013-01-02 00:32:00,
2013-01-01 19:47:00,19.5,12.0,29.96,West,278,0.0,4.0,71,0.00,,,0.00,weatherlink.com 1.10,2013-01-02 00:47:00,
2013-01-01 20:02:00,19.0,11.0,29.96,WNW,301,0.0,2.0,71,0.00,,,0.00,weatherlink.com 1.10,2013-01-02 01:02:00,
2013-01-01 20:17:00,18.7,11.0,29.96,NW,310,0.0,3.0,72,0.00,,,0.00,weatherlink.com 1.10,2013-01-02 01:17:00,
2013-01-01 20:32:00,18.2,11.0,29.96,NNW,327,0.0,3.0,72,0.00,,,0.00,weatherlink.com 1.10,2013-01-02 01:32:00,
2013-01-01 20:47:00,17.8,11.0,29.96,NW,326,0.0,0.0,73,0.00,,,0.00,weatherlink.com 1.10,2013-01-02 01:47:00,
2013-01-01 21:02:00,17.3,10.0,29.95,NW,326,0.0,0.0,74,0.00,,,0.00,weatherlink.com 1.10,2013-01-02 02:02:00,
2013-01-01 21:17:00,16.5,10.0,29.95,NW,326,0.0,0.0,74,0.00,,,0.00,weatherlink.com 1.10,2013-01-02 02:17:00,
2013-01-01 21:32:00,15.8,9.0,29.96,NW,326,0.0,0.0,75,0.00,,,0.00,weatherlink.com 1.10,2013-01-02 02:32:00,
2013-01-01 21:47:00,14.9,8.0,29.95,NW,326,0.0,0.0,75,0.00,,,0.00,weatherlink.com 1.10,2013-01-02 02:47:00,
2013-01-01 22:02:00,13.8,8.0,29.95,NW,326,0.0,0.0,77,0.00,,,0.00,weatherlink.com 1.10,2013-01-02 03:02:00,
2013-01-01 22:17:00,12.9,7.0,29.96,NW,326,0.0,0.0,77,0.00,,,0.00,weatherlink.com 1.10,2013-01-02 03:17:00,
2013-01-01 22:32:00,12.0,7.0,29.96,NW,326,0.0,0.0,80,0.00,,,0.00,weatherlink.com 1.10,2013-01-02 03:32:00,
2013-01-01 23:02:00,10.6,6.0,29.97,NW,326,0.0,0.0,81,0.00,,,0.00,weatherlink.com 1.10,2013-01-02 04:02:00,
2013-01-01 23:17:00,10.0,6.0,29.96,NW,326,0.0,0.0,83,0.00,,,0.00,weatherlink.com 1.10,2013-01-02 04:17:00,
2013-01-01 23:33:00,9.8,6.0,29.96,NW,326,0.0,0.0,85,0.00,,,0.00,weatherlink.com 1.10,2013-01-02 04:33:00,
2013-01-01 23:48:00,9.7,6.0,29.96,NW,326,0.0,0.0,86,0.00,,,0.00,weatherlink.com 1.10,2013-01-02 04:48:00,